www.pogodaiklimat.ru

Погода и климат >> Архив погоды >> Доминиканская Республика >> Пунта-Кана


ПОГОДА в Пунта-Кане

  • Прогноз погоды в Пунта-Кане
  • Монитор погоды в Пунта-Кане

АРХИВ ПОГОДЫ в Пунта-Кане

Время (UTC), дата Ветер
(напр.,м/с)
 
Видим.   Явления Облачность Т
(С)
Тd
(С)
f
(%)
Тe
(С)
Тes
(С)
Комфортность P
(гПа)
Po
(гПа)
Тmin
(С)
Tmax
(С)
R
(мм)
R24
(мм)
S
(см)
21 10.06 ЮВ 5 16 км 9/8 540 м
[Cu Sc Cs]
+28.7 +24.8 79 +41 +41 опасность
перегрева
1016.6 1015.2
00 11.06 ЮВ 5 16 км 9/5 500 м
[Cu Sc Cs]
+27.8 +24.6 83 +39 +39 очень
душно
1017.0 1015.6 +25.0 +31.5
03 11.06 ЮВ 5 16 км 4// 500 м
[Cb calv]
+27.5 +23.6 79 +37 +37 очень
душно
1018.7 1017.3
06 11.06 ЮВ 3 16 км {гроза} 3/3 540 м
[Cu med, cong]
+26.8 +24.4 87 +38 +38 очень
душно
1017.2 1015.8 +25.0 +31.5
09 11.06 ЮВ 2 16 км 3/3 540 м
[Cu med, cong]
+26.4 +23.4 84 +36 +36 очень
душно
1017.2 1015.8
12 11.06 В 4 16 км 3/3 600 м
[Cu med, cong]
+27.8 +23.3 77 +38 +40 очень
душно
1018.6 1017.2 +26.2 +31.5
15 11.06 В 5 16 км 3/3 720 м
[Cu med, cong]
+28.8 +24 +31 комфорт 1019.4 1018.0
18 11.06 В 5 16 км 3/3 800 м
[Cu med, cong]
+29.5 +23.6 71 +40 +48 очень
душно
1017.9 1016.5 +26.2 +30.0
21 11.06 В 5 16 км 1/1 750 м
[Cu med, cong]
+28.6 +22.8 71 +38 +40 очень
душно
1016.7 1015.3
00 12.06 В 2 16 км 3/3 720 м
[Cu med, cong]
+26.5 +23.1 82 +36 +36 очень
душно
1017.3 1015.9 +26.2 +30.0
03 12.06 В 3 16 км 3/3 600 м
[Cu med, cong]
+26.3 +23.0 82 +35 +35 очень
душно
1018.3 1016.9
06 12.06 нст 2 16 км 4/4 540 м
[Cu med, cong]
+26.3 +23.7 86 +36 +36 очень
душно
1016.8 1015.4 +26.0 +30.0
09 12.06 В 2 16 км 1/1 540 м
[Cu med, cong]
+25.6 +22.7 84 +34 +34 очень
душно
1016.9 1015.5
12 12.06 В 5 16 км 3/3 540 м
[Cu med, cong]
+27.2 +23.3 79 +37 +38 очень
душно
1018.0 1016.6 +25.6 +30.0
15 12.06 В 6 16 км 3/3 660 м
[Cu med, cong]
+29.3 +22.9 68 +39 +44 очень
душно
1018.8 1017.4
18 12.06 В 5 16 км 3/3 660 м
[Cu med, cong]
+29.5 +22.9 68 +39 +47 очень
душно
1018.0 1016.6 +25.6 +31.5
21 12.06 В 6 16 км 6/6 750 м
[Cu med, cong]
+30.2 +24.1 70 +42 +43 опасность
перегрева
1016.5 1015.1
00 13.06 В 7 16 км 6/6 540 м
[Cu med, cong Ac trans]
+27.5 +23.0 76 +37 +37 очень
душно
1017.4 1016.0 +25.6 +31.5
03 13.06 штиль 0 16 км {ливн. осадки} 6/6 540 м
[Cu med, cong]
+26.0 +24.1 89 +36 +36 очень
душно
1018.6 1017.2 0.1
06 13.06 В 2 16 км 4/4 540 м
[Cu med, cong]
+26.4 +23.8 86 +36 +36 очень
душно
1017.3 1015.9 +25.6 +31.5
09 13.06 В 5 16 км 3/3 540 м
[Cu med, cong]
+26.3 +22.3 79 +34 +34 очень
душно
1017.4 1016.0
12 13.06 В 6 16 км 4/3 600 м
[Cu med, cong Ci fib]
+28.0 +24.2 80 +39 +40 очень
душно
1018.8 1017.4 +26.0 +31.5
15 13.06 В 5 16 км 4/3 600 м
[Cu med, cong Ac trans Ci fib]
+29.2 +24.1 74 +41 +47 опасность
перегрева
1019.2 1017.8
18 13.06 В 6 16 км 8/6 660 м
[Cu med, cong Ci]
+30.4 +24.4 70 +42 +45 опасность
перегрева
1018.3 1016.9 +26.0 +31.5
00 14.06 В 3 8000 м осадки на расстоянии 9/8 540 м
[Cb cap Ac trans Ci fib]
+26.5 +23.1 82 +36 +36 очень
душно
1017.8 1016.4 +25.5 +31.5 0.4
03 14.06 штиль 0 16 км 9/8 480 м
[Cb cap Ac trans Ci]
+24.8 +23.4 92 +33 +33 очень
душно
1018.8 1017.4
06 14.06 В 5 16 км {дождь} 9/8 480 м
[Cb cap Ac trans Ci]
+26.1 +24.2 89 +36 +36 очень
душно
1017.7 1016.3 +24.8 +31.5 1
09 14.06 В 3 16 км 3/3 540 м
[Cu med, cong]
+25.7 +23.6 88 +35 +35 очень
душно
1017.8 1016.4
12 14.06 В 6 16 км 3/3 600 м
[Cu med, cong Ci fib]
+27.6 +22.8 75 +37 +38 очень
душно
1019.1 1017.7 +24.8 +31.5
15 14.06 В 6 16 км 4/4 750 м
[Cu med, cong]
+29.6 +21.9 63 +38 +42 очень
душно
1018.9 1017.5
18 14.06 В 6 16 км 4/4 750 м
[Cu med, cong]
+30.8 +24.7 70 +44 +48 опасность
перегрева
1017.6 1016.2 +24.8 +31.0
21 14.06 В 5 16 км 4/4 600 м
[Cu med, cong]
+28.4 +22.4 70 +37 +39 очень
душно
1016.8 1015.4
00 15.06 В 5 8000 м слаб. дождь 8/8 480 м
[Cb cap As op]
+26.8 +23.7 83 +37 +37 очень
душно
1017.8 1016.4 +24.8 +31.0 0.0
03 15.06 штиль 0 16 км зарница {дождь} 5/5 480 м
[Cb cap Ac trans]
+24.6 +22.9 90 +33 +33 очень
душно
1018.0 1016.6 0.0
06 15.06 штиль 0 16 км зарница {гроза, дождь} 6/5 480 м
[Cb cap Ac trans Ci]
+24.7 +23.2 91 +33 +33 очень
душно
1017.3 1015.9 +24.0 +31.0
09 15.06 штиль 0 16 км зарница {гроза} 8/6 480 м
[Cb cap Ac trans Ci ing]
+25.4 +24.0 92 +35 +35 очень
душно
1017.0 1015.6
12 15.06 В 5 16 км {гроза} 6/4 540 м
[Cb cap Ci ing]
+27.8 +24.3 81 +39 +40 очень
душно
1018.2 1016.8 +24.5 +31.0
15 15.06 В 7 16 км 4/4 600 м
[Cu med, cong]
+28.8 +23.7 74 +39 +43 очень
душно
1018.8 1017.4
18 15.06 В 7 16 км 4/4 600 м
[Cu med, cong]
+29.2 +24.1 74 +41 +44 опасность
перегрева
1017.6 1016.2 +24.5 +30.5
21 15.06 В 7 16 км 5/5 600 м
[Cb cap Ci fib]
+29.6 +24.3 73 +41 +42 опасность
перегрева
1016.4 1015.0
00 16.06 В 5 16 км 8/6 600 м
[Cb cap Ci fib]
+27.6 +23.3 77 +37 +37 очень
душно
1016.9 1015.5 +24.5 +30.5
03 16.06 В 5 16 км 3/3 600 м
[Cu med, cong]
+27.0 +24.0 84 +37 +37 очень
душно
1017.8 1016.4
06 16.06 В 5 16 км 4/4 600 м
[Cu med, cong]
+27.0 +23.7 82 +37 +37 очень
душно
1017.2 1015.8 +24.5 +30.5
09 16.06 В 5 16 км 4/4 540 м
[Cu med, cong]
+26.6 +23.3 82 +36 +36 очень
душно
1016.5 1015.1
12 16.06 В 6 16 км 3/3 630 м
[Cu med, cong]
+28.4 +23.8 76 +39 +40 очень
душно
1018.1 1016.7 +25.0 +30.5
15 16.06 В 6 16 км 4/4 660 м
[Cu med, cong]
+29.2 +24.4 75 +41 +45 опасность
перегрева
1018.4 1017.0
18 16.06 В 7 16 км 4/4 750 м
[Cu med, cong]
+30.4 +24.6 71 +43 +46 опасность
перегрева
1016.8 1015.4 +25.0 +30.5
21 16.06 В 7 16 км 5/5 660 м
[Cu Sc]
+29.0 +24.5 77 +41 +42 опасность
перегрева
1016.0 1014.6
00 17.06 В 4 16 км 5/5 540 м
[Cu med, cong]
+27.4 +23.9 81 +38 +38 очень
душно
1017.7 1016.3 +25.0 +30.5
09 17.06 штиль 0 16 км {дождь} 8/6 480 м
[Cu Sc As op Cs]
+24.1 +23.2 95 +32 +32 очень
душно
1017.4 1016.0 2
12 17.06 В 5 16 км {дождь} 6/4 540 м
[Cu med, cong Ac trans]
+28.1 +25.3 85 +41 +42 опасность
перегрева
1018.2 1016.8 +22.8 +30.5
15 17.06 В 7 16 км 4/4 660 м
[Cu med, cong]
+29.2 +24.7 77 +42 +45 опасность
перегрева
1019.1 1017.7

 

Местоположение метеостанции Пунта-Кана (Доминиканская Республика): широта 18.57 долгота -68.36 высота над уровнем моря 12 м.

В архиве по умолчанию представлена погода в Пунта-Кане за последнюю неделю. Архивные данные за месяц целиком и за предыдущие месяцы, начиная с января 2011 года, Вы можете получить, выбрав интересующий диапазон дат из раскрывающегося списка и нажав кнопку "Ввод!".


*Определитесь, кто Вы:
робот инопланетянин человек

Внимание! Время в таблицах - всемирное. Для получения местного времени необходимо прибавить поправку, которая равна -4 ч.

Смотрите также архив погоды в соседних городах и на ближайших метеорологических станциях:

Погода в Ла Романа аэропорту (Доминиканская Республика) (61 км)
Погода в Сабана де ла Мар (Доминиканская Республика) (120 км)
Погода в Лас Америкас (Доминиканская Республика) (138 км)
Погода в Санто-Доминго (Доминиканская Республика) (161 км)
Погода в Сантьяго (Доминиканская Республика) (265 км)
Погода в Пуэрто-Плате (Доминиканская Республика) (265 км)
Погода в Бараоне (Доминиканская Республика) (292 км)
Погода в Шарлотта-Амалии (Виргинские Острова) (360 км)
Погода в Принцессы Юлианы аэропорту (Нидерландские Антилы) (558 км)
Погода в Ангилье (Ангилья) (562 км)

Пояснения к столбцам:

Ветер - указаны скорость ветра в м/с - средняя за 10 мин, порывы в срок и между сроками (в фигурных скобках) и направление, откуда дует ветер: С - северный, СВ - северо-восточный, В - восточный, ЮВ - юго-восточный, Ю - южный, ЮЗ - юго-западный, З - западный, СЗ - северо-западный.
Видимость - горизонтальная дальность видимости в метрах или километрах. При видимости от 1 до 10 км при отсутствии осадков обычно наблюдается дымка, при ухудшении видимости до 1 км и менее - туман. В сухую погоду видимость может ухудшаться дымом, пылью или мглою.
Явления - указаны атмосферные явления, наблюдавшиеся в срок или в последний час перед сроком; фигурными скобками обозначены явления, наблюдавшиеся между сроками (за 1-3 часа до срока); квадратными скобками обозначены град или гололедные отложения с указанием их диаметра в мм.
Облачность - указаны через наклонную черту общая и нижняя облачность в баллах и высота нижней границы облаков в метрах; квадратными скобками обозначены формы облаков: Ci - перистые, Cs - перисто-слоистые, Cc - перисто-кучевые, Ac - высококучевые, As - высокослоистые, Sc - слоисто-кучевые, Ns - слоисто-дождевые, Cu - кучевые, Cb - кучево-дождевые. Подробнее классификацию облаков см. в Атласе облаков (PDF).
T - Температура воздуха - температура, измеренная на высоте 2 м над землей.
Td - Температура точки росы - температура, при понижении до которой содержащийся в воздухе водяной пар достигнет насыщения.
f - Относительная влажность воздуха - влажноcть воздуха, измеренная на высоте 2 м над землей.
Te - Эффективная температура - температура, которую ощущает одетый по сезону человек в тени. Характеристика душности погоды. При расчете учитывается влияние влажности воздуха и скорости ветра на теплоощущения человека.
Tes - Эффективная температура на солнце - температура, которую ощущает человек, с поправкой на солнечный нагрев. Характеристика знойности погоды. Зависит от высоты солнца над горизонтом, облачности и скорости ветра. Ночью, в пасмурную погоду, а также при ветре 12 м/с и более поправка равна нулю.
P - Атмосферное давление - приведенное к уровню моря атмосферное давление.
Po - Атмосферное давление - измеренное на уровне метеостанции атмосферное давление.
Tmin - Минимальная температура - минимум температуры воздуха на высоте 2 м над землей.
Tmax - Максимальная температура - максимум температуры воздуха на высоте 2 м над землей.
R - Количество осадков - Количество выпавших осадков за период времени, мм. При наведении курсора мыши на число - период времени, за который выпало указанное количество осадков.
R24 - Количество осадков - Количество выпавших осадков за 24 часа, мм.
S - Снежный покров - Высота снежного покрова, см. При наведении курсора мыши на число - состояние снежного покрова и степень покрытия местности в баллах.